Regional Weather Roundup
Issued by NWS Goodland, KS

Home | Current Version | Previous Version | Text Only | Print | Product List | Glossary Off
Versions: 1 2 3 4 5 6 7 8 9 10 11 12 13 14 15 16 17 18 19 20 21 22 23 24 25 26 27 28 29 30 31 32 33 34 35 36 37 38 39 40 41 42 43 44 45 46 47 48 49 50

000
ASUS43 KGLD 051459
RWRGLD

GOODLAND FORECAST AREA HOURLY WEATHER ROUNDUP
NATIONAL WEATHER SERVICE GOODLAND KS
900 AM MDT SUN JUL 05 2015

...OFFICIAL OBSERVATIONS...

CITY           SKY/WX    TMP DP  RH WIND       PRES   REMARKS
GOODLAND KS    SUNNY     80  60  50 S10       29.88F
HILL CITY KS   SUNNY     87  64  46 S15G21    29.85R
IMPERIAL NEB   SUNNY     80  62  54 S7        29.85F
MCCOOK NEB     SUNNY     86  62  44 S12       29.84R
AKRON CO       SUNNY     81  55  40 SW9       29.94S
BURLINGTON CO  SUNNY     82  59  45 SW7       29.92F
LIMON CO       SUNNY     77  55  46 CALM      30.00F
$$

...UNOFFICIAL OBSERVATIONS...

CITY           SKY/WX    TMP DP  RH WIND       PRES   REMARKS
COLBY KS       SUNNY     82  64  54 S10       29.87F
GOVE KS          N/A     82  32  16 MISG        N/A
NORTON KS      SUNNY     82  59  44 SE13      29.85R
SHARON SPRINGS   N/A     81  63  54 SW12        N/A
KIT CARSON CO    N/A     77  57  49 MISG        N/A
$$


USA.gov is the U.S. government's official web portal to all federal, state and local government web resources and services.